Tracking 28779 objects as of 15-Apr-2024
HD Live streaming from Space Station
objects crossing your sky now

FENGYUN 1C DEB

Track FENGYUN 1C DEB now!
10-day predictions


NORAD ID: 35207
Int'l Code: 1999-025DPP
Perigee: 717.1 km
Apogee: 814.6 km
Inclination: 98.7 °
Period: 100.0 minutes
Semi major axis: 7136 km
RCS: 0.0073 m2 (small)
Launch date: May 10, 1999
Source: People's Republic of China (PRC)
Launch site: Taiyaun Space Center, China (TSC)

Note: This is SATELLITE DEBRIS
Your satellite tracking list
Your tracking list is empty




NASA's NSSDC Master Catalog

Two Line Element Set (TLE):
1 35207U 99025DPP 24100.16111775  .00004050  00000-0  12670-2 0  9995
2 35207  98.7144 174.5980 0068310 303.1425  56.3220 14.39932972560392
Source of the keplerian elements: AFSPC